owner,sensor,date,latitude,longitude,air_pressure(mBar),qcFlag 
WAVCIS,ioos:station:WAVCIS:CSI15:1,2009-05-01T00:00:00Z,28.8332,-90.8320,1015.89,11111222 
WAVCIS,ioos:station:WAVCIS:CSI15:1,2009-05-01T01:00:00Z,28.8332,-90.8320,1016.18,11111222 
WAVCIS,ioos:station:WAVCIS:CSI15:1,2009-05-01T02:00:00Z,28.8332,-90.8320,1016.63,11111222 
WAVCIS,ioos:station:WAVCIS:CSI15:1,2009-05-01T03:00:00Z,28.8332,-90.8320,1016.71,11111222 
WAVCIS,ioos:station:WAVCIS:CSI15:1,2009-05-01T04:00:00Z,28.8332,-90.8320,1016.95,11111222 
WAVCIS,ioos:station:WAVCIS:CSI15:1,2009-05-01T05:00:00Z,28.8332,-90.8320,1017.08,11111222 
WAVCIS,ioos:station:WAVCIS:CSI15:1,2009-05-01T06:00:00Z,28.8332,-90.8320,1016.83,11111222 
WAVCIS,ioos:station:WAVCIS:CSI15:1,2009-05-01T07:00:00Z,28.8332,-90.8320,1016.66,11111222 
WAVCIS,ioos:station:WAVCIS:CSI15:1,2009-05-01T08:00:00Z,28.8332,-90.8320,1015.94,11111222 
WAVCIS,ioos:station:WAVCIS:CSI15:1,2009-05-01T09:00:00Z,28.8332,-90.8320,1015.77,11111222 
WAVCIS,ioos:station:WAVCIS:CSI15:1,2009-05-01T10:00:00Z,28.8332,-90.8320,1015.5,11111222 
WAVCIS,ioos:station:WAVCIS:CSI15:1,2009-05-01T11:00:00Z,28.8332,-90.8320,1015.67,11111222 
WAVCIS,ioos:station:WAVCIS:CSI15:1,2009-05-01T12:00:00Z,28.8332,-90.8320,1016.4,11111222 
WAVCIS,ioos:station:WAVCIS:CSI15:1,2009-05-01T13:00:00Z,28.8332,-90.8320,1016.79,11111222 
WAVCIS,ioos:station:WAVCIS:CSI15:1,2009-05-01T14:00:00Z,28.8332,-90.8320,1017.25,11111222 
WAVCIS,ioos:station:WAVCIS:CSI15:1,2009-05-01T15:00:00Z,28.8332,-90.8320,1017.36,11111222 
WAVCIS,ioos:station:WAVCIS:CSI15:1,2009-05-01T16:00:00Z,28.8332,-90.8320,1017.63,11111222 
WAVCIS,ioos:station:WAVCIS:CSI15:1,2009-05-01T17:00:00Z,28.8332,-90.8320,1017.66,11111222 
WAVCIS,ioos:station:WAVCIS:CSI15:1,2009-05-01T18:00:00Z,28.8332,-90.8320,1017.38,11111222 
WAVCIS,ioos:station:WAVCIS:CSI15:1,2009-05-01T19:00:00Z,28.8332,-90.8320,1017.15,11111222 
WAVCIS,ioos:station:WAVCIS:CSI15:1,2009-05-01T20:00:00Z,28.8332,-90.8320,1016.81,11111222 
WAVCIS,ioos:station:WAVCIS:CSI15:1,2009-05-01T21:00:00Z,28.8332,-90.8320,1016.36,11111222 
WAVCIS,ioos:station:WAVCIS:CSI15:1,2009-05-01T22:00:00Z,28.8332,-90.8320,1015.86,11111222 
WAVCIS,ioos:station:WAVCIS:CSI15:1,2009-05-01T23:00:00Z,28.8332,-90.8320,1015.34,11111222 
WAVCIS,ioos:station:WAVCIS:CSI15:1,2009-05-02T00:00:00Z,28.8332,-90.8320,1015.31,11111222 
WAVCIS,ioos:station:WAVCIS:CSI15:1,2009-05-02T01:00:00Z,28.8332,-90.8320,1015.15,11111222 
WAVCIS,ioos:station:WAVCIS:CSI15:1,2009-05-02T02:00:00Z,28.8332,-90.8320,1015.33,11111222 
WAVCIS,ioos:station:WAVCIS:CSI15:1,2009-05-02T03:00:00Z,28.8332,-90.8320,1015.69,11111222 
WAVCIS,ioos:station:WAVCIS:CSI15:1,2009-05-02T04:00:00Z,28.8332,-90.8320,1015.8,11111222 
WAVCIS,ioos:station:WAVCIS:CSI15:1,2009-05-02T05:00:00Z,28.8332,-90.8320,1015.47,11111222 
WAVCIS,ioos:station:WAVCIS:CSI15:1,2009-05-02T06:00:00Z,28.8332,-90.8320,1015.0,11111222 
WAVCIS,ioos:station:WAVCIS:CSI15:1,2009-05-02T07:00:00Z,28.8332,-90.8320,1014.33,11111222 
WAVCIS,ioos:station:WAVCIS:CSI15:1,2009-05-02T08:00:00Z,28.8332,-90.8320,1013.92,11111222 
WAVCIS,ioos:station:WAVCIS:CSI15:1,2009-05-02T09:00:00Z,28.8332,-90.8320,1013.84,11111222 
WAVCIS,ioos:station:WAVCIS:CSI15:1,2009-05-02T10:00:00Z,28.8332,-90.8320,1014.15,11111222 
WAVCIS,ioos:station:WAVCIS:CSI15:1,2009-05-02T11:00:00Z,28.8332,-90.8320,1014.3,11111222 
WAVCIS,ioos:station:WAVCIS:CSI15:1,2009-05-02T12:00:00Z,28.8332,-90.8320,1014.68,11111222 
WAVCIS,ioos:station:WAVCIS:CSI15:1,2009-05-02T13:00:00Z,28.8332,-90.8320,1014.68,11111222 
WAVCIS,ioos:station:WAVCIS:CSI15:1,2009-05-02T14:00:00Z,28.8332,-90.8320,1014.75,11111222 
WAVCIS,ioos:station:WAVCIS:CSI15:1,2009-05-02T15:00:00Z,28.8332,-90.8320,1014.55,11111222 
WAVCIS,ioos:station:WAVCIS:CSI15:1,2009-05-02T16:00:00Z,28.8332,-90.8320,1013.98,11111222 
WAVCIS,ioos:station:WAVCIS:CSI15:1,2009-05-02T17:00:00Z,28.8332,-90.8320,1013.42,11111222 
WAVCIS,ioos:station:WAVCIS:CSI15:1,2009-05-02T18:00:00Z,28.8332,-90.8320,1013.61,11111222 
WAVCIS,ioos:station:WAVCIS:CSI15:1,2009-05-02T19:00:00Z,28.8332,-90.8320,1012.86,11111222 
WAVCIS,ioos:station:WAVCIS:CSI15:1,2009-05-02T20:00:00Z,28.8332,-90.8320,1012.28,11111222 
WAVCIS,ioos:station:WAVCIS:CSI15:1,2009-05-02T21:00:00Z,28.8332,-90.8320,1011.47,11111222 
WAVCIS,ioos:station:WAVCIS:CSI15:1,2009-05-02T22:00:00Z,28.8332,-90.8320,1011.01,11111222 
WAVCIS,ioos:station:WAVCIS:CSI15:1,2009-05-02T23:00:00Z,28.8332,-90.8320,1010.39,11111222 
WAVCIS,ioos:station:WAVCIS:CSI15:1,2009-05-03T00:00:00Z,28.8332,-90.8320,1010.45,11111222 
WAVCIS,ioos:station:WAVCIS:CSI15:1,2009-05-03T01:00:00Z,28.8332,-90.8320,1010.4,11111222 
WAVCIS,ioos:station:WAVCIS:CSI15:1,2009-05-03T02:00:00Z,28.8332,-90.8320,1010.14,11111222 
WAVCIS,ioos:station:WAVCIS:CSI15:1,2009-05-03T03:00:00Z,28.8332,-90.8320,1010.3,11111222 
WAVCIS,ioos:station:WAVCIS:CSI15:1,2009-05-03T04:00:00Z,28.8332,-90.8320,1010.3,11111222 
WAVCIS,ioos:station:WAVCIS:CSI15:1,2009-05-03T05:00:00Z,28.8332,-90.8320,1010.18,11111222 
WAVCIS,ioos:station:WAVCIS:CSI15:1,2009-05-03T06:00:00Z,28.8332,-90.8320,1009.95,11111222 
WAVCIS,ioos:station:WAVCIS:CSI15:1,2009-05-03T07:00:00Z,28.8332,-90.8320,1009.6,11111222 
WAVCIS,ioos:station:WAVCIS:CSI15:1,2009-05-03T08:00:00Z,28.8332,-90.8320,1009.25,11111222 
WAVCIS,ioos:station:WAVCIS:CSI15:1,2009-05-03T09:00:00Z,28.8332,-90.8320,1009.69,11111222 
WAVCIS,ioos:station:WAVCIS:CSI15:1,2009-05-03T10:00:00Z,28.8332,-90.8320,1009.68,11111222 
WAVCIS,ioos:station:WAVCIS:CSI15:1,2009-05-03T11:00:00Z,28.8332,-90.8320,1008.16,11111222 
WAVCIS,ioos:station:WAVCIS:CSI15:1,2009-05-03T12:00:00Z,28.8332,-90.8320,1009.77,11111222 
WAVCIS,ioos:station:WAVCIS:CSI15:1,2009-05-03T13:00:00Z,28.8332,-90.8320,1009.32,11111222 
WAVCIS,ioos:station:WAVCIS:CSI15:1,2009-05-03T14:00:00Z,28.8332,-90.8320,1009.06,11111222 
WAVCIS,ioos:station:WAVCIS:CSI15:1,2009-05-03T15:00:00Z,28.8332,-90.8320,1009.47,11111222 
WAVCIS,ioos:station:WAVCIS:CSI15:1,2009-05-03T16:00:00Z,28.8332,-90.8320,1010.02,11111222 
WAVCIS,ioos:station:WAVCIS:CSI15:1,2009-05-03T17:00:00Z,28.8332,-90.8320,1010.44,11111222 
WAVCIS,ioos:station:WAVCIS:CSI15:1,2009-05-03T18:00:00Z,28.8332,-90.8320,1010.21,11111222 
WAVCIS,ioos:station:WAVCIS:CSI15:1,2009-05-03T19:00:00Z,28.8332,-90.8320,1009.96,11111222 
WAVCIS,ioos:station:WAVCIS:CSI15:1,2009-05-03T20:00:00Z,28.8332,-90.8320,1010.09,11111222 
WAVCIS,ioos:station:WAVCIS:CSI15:1,2009-05-03T21:00:00Z,28.8332,-90.8320,1009.37,11111222 
WAVCIS,ioos:station:WAVCIS:CSI15:1,2009-05-03T22:00:00Z,28.8332,-90.8320,1008.8,11111222 
WAVCIS,ioos:station:WAVCIS:CSI15:1,2009-05-03T23:00:00Z,28.8332,-90.8320,1009.42,11111222 
WAVCIS,ioos:station:WAVCIS:CSI15:1,2009-05-04T00:00:00Z,28.8332,-90.8320,1009.3,11111222 
WAVCIS,ioos:station:WAVCIS:CSI15:1,2009-05-04T01:00:00Z,28.8332,-90.8320,1009.21,11111222 
WAVCIS,ioos:station:WAVCIS:CSI15:1,2009-05-04T02:00:00Z,28.8332,-90.8320,1009.19,11111222 
WAVCIS,ioos:station:WAVCIS:CSI15:1,2009-05-04T03:00:00Z,28.8332,-90.8320,1009.28,11111222 
WAVCIS,ioos:station:WAVCIS:CSI15:1,2009-05-04T04:00:00Z,28.8332,-90.8320,1009.91,11111222 
WAVCIS,ioos:station:WAVCIS:CSI15:1,2009-05-04T05:00:00Z,28.8332,-90.8320,1009.81,11111222 
WAVCIS,ioos:station:WAVCIS:CSI15:1,2009-05-04T06:00:00Z,28.8332,-90.8320,1009.9,11111222 
WAVCIS,ioos:station:WAVCIS:CSI15:1,2009-05-04T07:00:00Z,28.8332,-90.8320,1009.51,11111222 
WAVCIS,ioos:station:WAVCIS:CSI15:1,2009-05-04T08:00:00Z,28.8332,-90.8320,1009.0,11111222 
WAVCIS,ioos:station:WAVCIS:CSI15:1,2009-05-04T09:00:00Z,28.8332,-90.8320,1009.0,11111222 
WAVCIS,ioos:station:WAVCIS:CSI15:1,2009-05-04T10:00:00Z,28.8332,-90.8320,1009.06,11111222 
WAVCIS,ioos:station:WAVCIS:CSI15:1,2009-05-04T11:00:00Z,28.8332,-90.8320,1009.94,11111222 
WAVCIS,ioos:station:WAVCIS:CSI15:1,2009-05-04T12:00:00Z,28.8332,-90.8320,1011.12,11111222 
WAVCIS,ioos:station:WAVCIS:CSI15:1,2009-05-04T13:00:00Z,28.8332,-90.8320,1011.18,11111222 
WAVCIS,ioos:station:WAVCIS:CSI15:1,2009-05-04T14:00:00Z,28.8332,-90.8320,1011.84,11111222 
WAVCIS,ioos:station:WAVCIS:CSI15:1,2009-05-04T15:00:00Z,28.8332,-90.8320,1012.05,11111222 
WAVCIS,ioos:station:WAVCIS:CSI15:1,2009-05-04T16:00:00Z,28.8332,-90.8320,1012.08,11111222 
WAVCIS,ioos:station:WAVCIS:CSI15:1,2009-05-04T17:00:00Z,28.8332,-90.8320,1012.84,11111222 
WAVCIS,ioos:station:WAVCIS:CSI15:1,2009-05-04T18:00:00Z,28.8332,-90.8320,1012.64,11111222 
WAVCIS,ioos:station:WAVCIS:CSI15:1,2009-05-04T19:00:00Z,28.8332,-90.8320,1012.06,11111222 
WAVCIS,ioos:station:WAVCIS:CSI15:1,2009-05-04T20:00:00Z,28.8332,-90.8320,1011.77,11111222 
WAVCIS,ioos:station:WAVCIS:CSI15:1,2009-05-04T21:00:00Z,28.8332,-90.8320,1010.88,11111222 
WAVCIS,ioos:station:WAVCIS:CSI15:1,2009-05-04T22:00:00Z,28.8332,-90.8320,1010.47,11111222 
WAVCIS,ioos:station:WAVCIS:CSI15:1,2009-05-04T23:00:00Z,28.8332,-90.8320,1010.16,11111222 
WAVCIS,ioos:station:WAVCIS:CSI15:1,2009-05-05T00:00:00Z,28.8332,-90.8320,1010.24,11111222 
WAVCIS,ioos:station:WAVCIS:CSI15:1,2009-05-05T01:00:00Z,28.8332,-90.8320,1010.3,11111222 
WAVCIS,ioos:station:WAVCIS:CSI15:1,2009-05-05T02:00:00Z,28.8332,-90.8320,1010.82,11111222 
WAVCIS,ioos:station:WAVCIS:CSI15:1,2009-05-05T03:00:00Z,28.8332,-90.8320,1011.49,11111222 
WAVCIS,ioos:station:WAVCIS:CSI15:1,2009-05-05T04:00:00Z,28.8332,-90.8320,1011.84,11111222 
WAVCIS,ioos:station:WAVCIS:CSI15:1,2009-05-05T05:00:00Z,28.8332,-90.8320,1011.92,11111222 
WAVCIS,ioos:station:WAVCIS:CSI15:1,2009-05-05T06:00:00Z,28.8332,-90.8320,1011.64,11111222 
WAVCIS,ioos:station:WAVCIS:CSI15:1,2009-05-05T07:00:00Z,28.8332,-90.8320,1011.29,11111222 
WAVCIS,ioos:station:WAVCIS:CSI15:1,2009-05-05T08:00:00Z,28.8332,-90.8320,1010.97,11111222 
WAVCIS,ioos:station:WAVCIS:CSI15:1,2009-05-05T09:00:00Z,28.8332,-90.8320,1011.33,11111222 
WAVCIS,ioos:station:WAVCIS:CSI15:1,2009-05-05T10:00:00Z,28.8332,-90.8320,1011.46,11111222 
WAVCIS,ioos:station:WAVCIS:CSI15:1,2009-05-05T11:00:00Z,28.8332,-90.8320,1011.51,11111222 
WAVCIS,ioos:station:WAVCIS:CSI15:1,2009-05-05T12:00:00Z,28.8332,-90.8320,1011.75,11111222 
WAVCIS,ioos:station:WAVCIS:CSI15:1,2009-05-05T13:00:00Z,28.8332,-90.8320,1012.98,11111222 
WAVCIS,ioos:station:WAVCIS:CSI15:1,2009-05-05T14:00:00Z,28.8332,-90.8320,1013.28,11111222 
WAVCIS,ioos:station:WAVCIS:CSI15:1,2009-05-05T15:00:00Z,28.8332,-90.8320,1013.76,11111222 
WAVCIS,ioos:station:WAVCIS:CSI15:1,2009-05-05T16:00:00Z,28.8332,-90.8320,1014.06,11111222 
WAVCIS,ioos:station:WAVCIS:CSI15:1,2009-05-05T17:00:00Z,28.8332,-90.8320,1013.81,11111222 
WAVCIS,ioos:station:WAVCIS:CSI15:1,2009-05-05T18:00:00Z,28.8332,-90.8320,1013.42,11111222 
WAVCIS,ioos:station:WAVCIS:CSI15:1,2009-05-05T19:00:00Z,28.8332,-90.8320,1013.07,11111222 
WAVCIS,ioos:station:WAVCIS:CSI15:1,2009-05-05T20:00:00Z,28.8332,-90.8320,1011.93,11111222 
WAVCIS,ioos:station:WAVCIS:CSI15:1,2009-05-05T21:00:00Z,28.8332,-90.8320,1011.67,11111222 
WAVCIS,ioos:station:WAVCIS:CSI15:1,2009-05-05T22:00:00Z,28.8332,-90.8320,1010.89,11111222 
WAVCIS,ioos:station:WAVCIS:CSI15:1,2009-05-05T23:00:00Z,28.8332,-90.8320,1010.74,11111222 
WAVCIS,ioos:station:WAVCIS:CSI15:1,2009-05-06T00:00:00Z,28.8332,-90.8320,1010.4,11111222 
WAVCIS,ioos:station:WAVCIS:CSI15:1,2009-05-06T01:00:00Z,28.8332,-90.8320,1010.78,11111222 
WAVCIS,ioos:station:WAVCIS:CSI15:1,2009-05-06T02:00:00Z,28.8332,-90.8320,1011.3,11111222 
WAVCIS,ioos:station:WAVCIS:CSI15:1,2009-05-06T03:00:00Z,28.8332,-90.8320,1011.09,11111222 
WAVCIS,ioos:station:WAVCIS:CSI15:1,2009-05-06T04:00:00Z,28.8332,-90.8320,1011.07,11111222 
WAVCIS,ioos:station:WAVCIS:CSI15:1,2009-05-06T05:00:00Z,28.8332,-90.8320,1010.37,11111222 
WAVCIS,ioos:station:WAVCIS:CSI15:1,2009-05-06T06:00:00Z,28.8332,-90.8320,1010.12,11111222 
WAVCIS,ioos:station:WAVCIS:CSI15:1,2009-05-06T07:00:00Z,28.8332,-90.8320,1009.48,11111222 
WAVCIS,ioos:station:WAVCIS:CSI15:1,2009-05-06T08:00:00Z,28.8332,-90.8320,1009.28,11111222 
WAVCIS,ioos:station:WAVCIS:CSI15:1,2009-05-06T09:00:00Z,28.8332,-90.8320,1009.06,11111222 
WAVCIS,ioos:station:WAVCIS:CSI15:1,2009-05-06T10:00:00Z,28.8332,-90.8320,1009.23,11111222 
WAVCIS,ioos:station:WAVCIS:CSI15:1,2009-05-06T11:00:00Z,28.8332,-90.8320,1009.04,11111222 
WAVCIS,ioos:station:WAVCIS:CSI15:1,2009-05-06T12:00:00Z,28.8332,-90.8320,1009.49,11111222 
WAVCIS,ioos:station:WAVCIS:CSI15:1,2009-05-06T13:00:00Z,28.8332,-90.8320,1010.62,11111222 
WAVCIS,ioos:station:WAVCIS:CSI15:1,2009-05-06T14:00:00Z,28.8332,-90.8320,1010.91,11111222 
WAVCIS,ioos:station:WAVCIS:CSI15:1,2009-05-06T15:00:00Z,28.8332,-90.8320,1011.23,11111222 
WAVCIS,ioos:station:WAVCIS:CSI15:1,2009-05-06T16:00:00Z,28.8332,-90.8320,1011.49,11111222 
WAVCIS,ioos:station:WAVCIS:CSI15:1,2009-05-06T17:00:00Z,28.8332,-90.8320,1011.66,11111222 
WAVCIS,ioos:station:WAVCIS:CSI15:1,2009-05-06T18:00:00Z,28.8332,-90.8320,1011.57,11111222 
WAVCIS,ioos:station:WAVCIS:CSI15:1,2009-05-06T19:00:00Z,28.8332,-90.8320,1011.24,11111222 
WAVCIS,ioos:station:WAVCIS:CSI15:1,2009-05-06T20:00:00Z,28.8332,-90.8320,1011.44,11111222 
WAVCIS,ioos:station:WAVCIS:CSI15:1,2009-05-06T21:00:00Z,28.8332,-90.8320,1011.33,11111222 
WAVCIS,ioos:station:WAVCIS:CSI15:1,2009-05-06T22:00:00Z,28.8332,-90.8320,1011.11,11111222 
WAVCIS,ioos:station:WAVCIS:CSI15:1,2009-05-06T23:00:00Z,28.8332,-90.8320,1010.82,11111222 
WAVCIS,ioos:station:WAVCIS:CSI15:1,2009-05-07T00:00:00Z,28.8332,-90.8320,1010.4,11111222 
WAVCIS,ioos:station:WAVCIS:CSI15:1,2009-05-07T01:00:00Z,28.8332,-90.8320,1010.61,11111222 
WAVCIS,ioos:station:WAVCIS:CSI15:1,2009-05-07T02:00:00Z,28.8332,-90.8320,1010.94,11111222 
WAVCIS,ioos:station:WAVCIS:CSI15:1,2009-05-07T03:00:00Z,28.8332,-90.8320,1011.16,11111222 
WAVCIS,ioos:station:WAVCIS:CSI15:1,2009-05-07T04:00:00Z,28.8332,-90.8320,1011.14,11111222 
WAVCIS,ioos:station:WAVCIS:CSI15:1,2009-05-07T05:00:00Z,28.8332,-90.8320,1011.11,11111222 
WAVCIS,ioos:station:WAVCIS:CSI15:1,2009-05-07T06:00:00Z,28.8332,-90.8320,1010.95,11111222 
WAVCIS,ioos:station:WAVCIS:CSI15:1,2009-05-07T07:00:00Z,28.8332,-90.8320,1010.72,11111222 
WAVCIS,ioos:station:WAVCIS:CSI15:1,2009-05-07T08:00:00Z,28.8332,-90.8320,1010.74,11111222 
WAVCIS,ioos:station:WAVCIS:CSI15:1,2009-05-07T09:00:00Z,28.8332,-90.8320,1010.96,11111222 
WAVCIS,ioos:station:WAVCIS:CSI15:1,2009-05-07T10:00:00Z,28.8332,-90.8320,1011.24,11111222 
WAVCIS,ioos:station:WAVCIS:CSI15:1,2009-05-07T11:00:00Z,28.8332,-90.8320,1011.49,11111222 
WAVCIS,ioos:station:WAVCIS:CSI15:1,2009-05-07T12:00:00Z,28.8332,-90.8320,1012.14,11111222 
WAVCIS,ioos:station:WAVCIS:CSI15:1,2009-05-07T13:00:00Z,28.8332,-90.8320,1012.74,11111222 
WAVCIS,ioos:station:WAVCIS:CSI15:1,2009-05-07T14:00:00Z,28.8332,-90.8320,1012.74,11111222 
WAVCIS,ioos:station:WAVCIS:CSI15:1,2009-05-07T15:00:00Z,28.8332,-90.8320,1012.78,11111222 
WAVCIS,ioos:station:WAVCIS:CSI15:1,2009-05-07T16:00:00Z,28.8332,-90.8320,1012.81,11111222 
WAVCIS,ioos:station:WAVCIS:CSI15:1,2009-05-07T17:00:00Z,28.8332,-90.8320,1012.78,11111222 
WAVCIS,ioos:station:WAVCIS:CSI15:1,2009-05-07T18:00:00Z,28.8332,-90.8320,1012.7,11111222 
WAVCIS,ioos:station:WAVCIS:CSI15:1,2009-05-07T19:00:00Z,28.8332,-90.8320,1012.46,11111222 
WAVCIS,ioos:station:WAVCIS:CSI15:1,2009-05-07T20:00:00Z,28.8332,-90.8320,1011.93,11111222 
WAVCIS,ioos:station:WAVCIS:CSI15:1,2009-05-07T21:00:00Z,28.8332,-90.8320,1011.69,11111222 
WAVCIS,ioos:station:WAVCIS:CSI15:1,2009-05-07T22:00:00Z,28.8332,-90.8320,1011.31,11111222 
WAVCIS,ioos:station:WAVCIS:CSI15:1,2009-05-07T23:00:00Z,28.8332,-90.8320,1011.02,11111222 
WAVCIS,ioos:station:WAVCIS:CSI15:1,2009-05-08T00:00:00Z,28.8332,-90.8320,1010.8,11111222 
WAVCIS,ioos:station:WAVCIS:CSI15:1,2009-05-08T01:00:00Z,28.8332,-90.8320,1010.79,11111222 
WAVCIS,ioos:station:WAVCIS:CSI15:1,2009-05-08T02:00:00Z,28.8332,-90.8320,1011.17,11111222 
WAVCIS,ioos:station:WAVCIS:CSI15:1,2009-05-08T03:00:00Z,28.8332,-90.8320,1011.35,11111222 
WAVCIS,ioos:station:WAVCIS:CSI15:1,2009-05-08T04:00:00Z,28.8332,-90.8320,1011.56,11111222 
WAVCIS,ioos:station:WAVCIS:CSI15:1,2009-05-08T05:00:00Z,28.8332,-90.8320,1011.41,11111222 
WAVCIS,ioos:station:WAVCIS:CSI15:1,2009-05-08T06:00:00Z,28.8332,-90.8320,1011.11,11111222 
WAVCIS,ioos:station:WAVCIS:CSI15:1,2009-05-08T07:00:00Z,28.8332,-90.8320,1010.42,11111222 
WAVCIS,ioos:station:WAVCIS:CSI15:1,2009-05-08T08:00:00Z,28.8332,-90.8320,1010.11,11111222 
WAVCIS,ioos:station:WAVCIS:CSI15:1,2009-05-08T09:00:00Z,28.8332,-90.8320,1009.81,11111222 
WAVCIS,ioos:station:WAVCIS:CSI15:1,2009-05-08T10:00:00Z,28.8332,-90.8320,1009.68,11111222 
WAVCIS,ioos:station:WAVCIS:CSI15:1,2009-05-08T11:00:00Z,28.8332,-90.8320,1009.67,11111222 
WAVCIS,ioos:station:WAVCIS:CSI15:1,2009-05-08T12:00:00Z,28.8332,-90.8320,1010.11,11111222 
WAVCIS,ioos:station:WAVCIS:CSI15:1,2009-05-08T13:00:00Z,28.8332,-90.8320,1010.29,11111222 
WAVCIS,ioos:station:WAVCIS:CSI15:1,2009-05-08T14:00:00Z,28.8332,-90.8320,1010.59,11111222 
WAVCIS,ioos:station:WAVCIS:CSI15:1,2009-05-08T15:00:00Z,28.8332,-90.8320,1010.76,11111222 
WAVCIS,ioos:station:WAVCIS:CSI15:1,2009-05-08T16:00:00Z,28.8332,-90.8320,1011.04,11111222 
WAVCIS,ioos:station:WAVCIS:CSI15:1,2009-05-08T17:00:00Z,28.8332,-90.8320,1011.53,11111222 
WAVCIS,ioos:station:WAVCIS:CSI15:1,2009-05-08T18:00:00Z,28.8332,-90.8320,1011.69,11111222 
WAVCIS,ioos:station:WAVCIS:CSI15:1,2009-05-08T19:00:00Z,28.8332,-90.8320,1011.75,11111222 
WAVCIS,ioos:station:WAVCIS:CSI15:1,2009-05-08T20:00:00Z,28.8332,-90.8320,1011.32,11111222 
WAVCIS,ioos:station:WAVCIS:CSI15:1,2009-05-08T21:00:00Z,28.8332,-90.8320,1010.62,11111222 
WAVCIS,ioos:station:WAVCIS:CSI15:1,2009-05-08T22:00:00Z,28.8332,-90.8320,1009.88,11111222 
WAVCIS,ioos:station:WAVCIS:CSI15:1,2009-05-08T23:00:00Z,28.8332,-90.8320,1009.85,11111222 
WAVCIS,ioos:station:WAVCIS:CSI15:1,2009-05-09T00:00:00Z,28.8332,-90.8320,1010.0,11111222 
WAVCIS,ioos:station:WAVCIS:CSI15:1,2009-05-09T01:00:00Z,28.8332,-90.8320,1010.1,11111222 
WAVCIS,ioos:station:WAVCIS:CSI15:1,2009-05-09T02:00:00Z,28.8332,-90.8320,1010.22,11111222 
WAVCIS,ioos:station:WAVCIS:CSI15:1,2009-05-09T03:00:00Z,28.8332,-90.8320,1010.66,11111222 
WAVCIS,ioos:station:WAVCIS:CSI15:1,2009-05-09T04:00:00Z,28.8332,-90.8320,1010.8,11111222 
WAVCIS,ioos:station:WAVCIS:CSI15:1,2009-05-09T05:00:00Z,28.8332,-90.8320,1010.93,11111222 
WAVCIS,ioos:station:WAVCIS:CSI15:1,2009-05-09T06:00:00Z,28.8332,-90.8320,1010.73,11111222 
WAVCIS,ioos:station:WAVCIS:CSI15:1,2009-05-09T07:00:00Z,28.8332,-90.8320,1010.55,11111222 
WAVCIS,ioos:station:WAVCIS:CSI15:1,2009-05-09T08:00:00Z,28.8332,-90.8320,1009.96,11111222 
WAVCIS,ioos:station:WAVCIS:CSI15:1,2009-05-09T09:00:00Z,28.8332,-90.8320,1010.12,11111222 
WAVCIS,ioos:station:WAVCIS:CSI15:1,2009-05-09T10:00:00Z,28.8332,-90.8320,1009.96,11111222 
WAVCIS,ioos:station:WAVCIS:CSI15:1,2009-05-09T11:00:00Z,28.8332,-90.8320,1010.6,11111222 
WAVCIS,ioos:station:WAVCIS:CSI15:1,2009-05-09T12:00:00Z,28.8332,-90.8320,1011.47,11111222 
WAVCIS,ioos:station:WAVCIS:CSI15:1,2009-05-09T13:00:00Z,28.8332,-90.8320,1012.95,11111222 
WAVCIS,ioos:station:WAVCIS:CSI15:1,2009-05-09T14:00:00Z,28.8332,-90.8320,1014.01,11111222 
WAVCIS,ioos:station:WAVCIS:CSI15:1,2009-05-09T15:00:00Z,28.8332,-90.8320,1014.49,11111222 
WAVCIS,ioos:station:WAVCIS:CSI15:1,2009-05-09T16:00:00Z,28.8332,-90.8320,1014.89,11111222 
WAVCIS,ioos:station:WAVCIS:CSI15:1,2009-05-09T17:00:00Z,28.8332,-90.8320,1015.1,11111222 
WAVCIS,ioos:station:WAVCIS:CSI15:1,2009-05-09T18:00:00Z,28.8332,-90.8320,1014.98,11111222 
WAVCIS,ioos:station:WAVCIS:CSI15:1,2009-05-09T19:00:00Z,28.8332,-90.8320,1014.49,11111222 
WAVCIS,ioos:station:WAVCIS:CSI15:1,2009-05-09T20:00:00Z,28.8332,-90.8320,1013.95,11111222 
WAVCIS,ioos:station:WAVCIS:CSI15:1,2009-05-09T21:00:00Z,28.8332,-90.8320,1013.13,11111222 
WAVCIS,ioos:station:WAVCIS:CSI15:1,2009-05-09T22:00:00Z,28.8332,-90.8320,1012.55,11111222 
WAVCIS,ioos:station:WAVCIS:CSI15:1,2009-05-09T23:00:00Z,28.8332,-90.8320,1012.68,11111222 
WAVCIS,ioos:station:WAVCIS:CSI15:1,2009-05-10T00:00:00Z,28.8332,-90.8320,1013.23,11111222 
WAVCIS,ioos:station:WAVCIS:CSI15:1,2009-05-10T01:00:00Z,28.8332,-90.8320,1013.76,11111222 
WAVCIS,ioos:station:WAVCIS:CSI15:1,2009-05-10T02:00:00Z,28.8332,-90.8320,1014.26,11111222 
WAVCIS,ioos:station:WAVCIS:CSI15:1,2009-05-10T03:00:00Z,28.8332,-90.8320,1014.82,11111222 
WAVCIS,ioos:station:WAVCIS:CSI15:1,2009-05-10T04:00:00Z,28.8332,-90.8320,1014.91,11111222 
WAVCIS,ioos:station:WAVCIS:CSI15:1,2009-05-10T05:00:00Z,28.8332,-90.8320,1014.46,11111222 
WAVCIS,ioos:station:WAVCIS:CSI15:1,2009-05-10T06:00:00Z,28.8332,-90.8320,1014.19,11111222 
WAVCIS,ioos:station:WAVCIS:CSI15:1,2009-05-10T07:00:00Z,28.8332,-90.8320,1014.51,11111222 
WAVCIS,ioos:station:WAVCIS:CSI15:1,2009-05-10T08:00:00Z,28.8332,-90.8320,1014.62,11111222 
WAVCIS,ioos:station:WAVCIS:CSI15:1,2009-05-10T09:00:00Z,28.8332,-90.8320,1014.38,11111222 
WAVCIS,ioos:station:WAVCIS:CSI15:1,2009-05-10T10:00:00Z,28.8332,-90.8320,1014.54,11111222 
WAVCIS,ioos:station:WAVCIS:CSI15:1,2009-05-10T11:00:00Z,28.8332,-90.8320,1014.71,11111222 
WAVCIS,ioos:station:WAVCIS:CSI15:1,2009-05-10T12:00:00Z,28.8332,-90.8320,1015.06,11111222 
WAVCIS,ioos:station:WAVCIS:CSI15:1,2009-05-10T13:00:00Z,28.8332,-90.8320,1015.46,11111222 
WAVCIS,ioos:station:WAVCIS:CSI15:1,2009-05-10T14:00:00Z,28.8332,-90.8320,1015.9,11111222 
WAVCIS,ioos:station:WAVCIS:CSI15:1,2009-05-10T15:00:00Z,28.8332,-90.8320,1016.19,11111222 
WAVCIS,ioos:station:WAVCIS:CSI15:1,2009-05-10T16:00:00Z,28.8332,-90.8320,1016.54,11111222 
WAVCIS,ioos:station:WAVCIS:CSI15:1,2009-05-10T17:00:00Z,28.8332,-90.8320,1016.83,11111222 
WAVCIS,ioos:station:WAVCIS:CSI15:1,2009-05-10T18:00:00Z,28.8332,-90.8320,1016.15,11111222 
WAVCIS,ioos:station:WAVCIS:CSI15:1,2009-05-10T19:00:00Z,28.8332,-90.8320,1015.51,11111222 
WAVCIS,ioos:station:WAVCIS:CSI15:1,2009-05-10T20:00:00Z,28.8332,-90.8320,1014.93,11111222 
WAVCIS,ioos:station:WAVCIS:CSI15:1,2009-05-10T21:00:00Z,28.8332,-90.8320,1014.07,11111222 
WAVCIS,ioos:station:WAVCIS:CSI15:1,2009-05-10T22:00:00Z,28.8332,-90.8320,1013.6,11111222 
WAVCIS,ioos:station:WAVCIS:CSI15:1,2009-05-10T23:00:00Z,28.8332,-90.8320,1013.54,11111222 
WAVCIS,ioos:station:WAVCIS:CSI15:1,2009-05-11T00:00:00Z,28.8332,-90.8320,1013.63,11111222 
WAVCIS,ioos:station:WAVCIS:CSI15:1,2009-05-11T01:00:00Z,28.8332,-90.8320,1013.88,11111222 
WAVCIS,ioos:station:WAVCIS:CSI15:1,2009-05-11T02:00:00Z,28.8332,-90.8320,1013.84,11111222 
WAVCIS,ioos:station:WAVCIS:CSI15:1,2009-05-11T03:00:00Z,28.8332,-90.8320,1014.43,11111222 
WAVCIS,ioos:station:WAVCIS:CSI15:1,2009-05-11T04:00:00Z,28.8332,-90.8320,1015.53,11111222 
WAVCIS,ioos:station:WAVCIS:CSI15:1,2009-05-11T05:00:00Z,28.8332,-90.8320,1015.71,11111222 
WAVCIS,ioos:station:WAVCIS:CSI15:1,2009-05-11T06:00:00Z,28.8332,-90.8320,1015.04,11111222 
WAVCIS,ioos:station:WAVCIS:CSI15:1,2009-05-11T07:00:00Z,28.8332,-90.8320,1014.27,11111222 
WAVCIS,ioos:station:WAVCIS:CSI15:1,2009-05-11T08:00:00Z,28.8332,-90.8320,1014.22,11111222 
WAVCIS,ioos:station:WAVCIS:CSI15:1,2009-05-11T09:00:00Z,28.8332,-90.8320,1014.68,11111222 
WAVCIS,ioos:station:WAVCIS:CSI15:1,2009-05-11T10:00:00Z,28.8332,-90.8320,1014.84,11111222 
WAVCIS,ioos:station:WAVCIS:CSI15:1,2009-05-11T11:00:00Z,28.8332,-90.8320,1014.67,11111222 
WAVCIS,ioos:station:WAVCIS:CSI15:1,2009-05-11T12:00:00Z,28.8332,-90.8320,1014.87,11111222 
WAVCIS,ioos:station:WAVCIS:CSI15:1,2009-05-11T13:00:00Z,28.8332,-90.8320,1015.13,11111222 
WAVCIS,ioos:station:WAVCIS:CSI15:1,2009-05-11T14:00:00Z,28.8332,-90.8320,1014.9,11111222 
WAVCIS,ioos:station:WAVCIS:CSI15:1,2009-05-11T15:00:00Z,28.8332,-90.8320,1014.97,11111222 
WAVCIS,ioos:station:WAVCIS:CSI15:1,2009-05-11T16:00:00Z,28.8332,-90.8320,1015.17,11111222 
WAVCIS,ioos:station:WAVCIS:CSI15:1,2009-05-11T17:00:00Z,28.8332,-90.8320,1015.36,11111222 
WAVCIS,ioos:station:WAVCIS:CSI15:1,2009-05-11T18:00:00Z,28.8332,-90.8320,1015.5,11111222 
WAVCIS,ioos:station:WAVCIS:CSI15:1,2009-05-11T19:00:00Z,28.8332,-90.8320,1015.71,11111222 
WAVCIS,ioos:station:WAVCIS:CSI15:1,2009-05-11T20:00:00Z,28.8332,-90.8320,1014.99,11111222 
WAVCIS,ioos:station:WAVCIS:CSI15:1,2009-05-11T21:00:00Z,28.8332,-90.8320,1014.26,11111222 
WAVCIS,ioos:station:WAVCIS:CSI15:1,2009-05-11T22:00:00Z,28.8332,-90.8320,1014.29,11111222 